Overview Statistics Trail Chart Weather Telemetry Raw packets
 

This is the latest recevied weather packets stored in our database for station/object W5CMS-13. If no packets are shown the sender has not sent any weather packets the latest 10 day(s).

<< 45 46 47 48 49 50 51 >>
Time Temp. Humidity Pressure Rain* Wind** Luminosity Snow
1787926518 28.89° C 74% 1017.4 hPa 0 mm - - -
1787925917 28.33° C 74% 1017.3 hPa 0 mm - - -
1787925317 28.33° C 75% 1017.4 hPa 0 mm - - -
1787924717 27.78° C 77% 1017.4 hPa 0 mm - - -
1787924117 27.22° C 78% 1017.4 hPa 0 mm - - -
1787923517 27.22° C 79% 1017.3 hPa 0 mm - - -
1787922919 26.67° C 79% 1017.3 hPa 0 mm - - -
1787922318 26.11° C 80% 1017.3 hPa 0 mm - - -
1787921717 25.56° C 81% 1017 hPa 0 mm - - -
1787921117 25.56° C 82% 1016.8 hPa 0 mm - - -
1787920517 25° C 83% 1016.8 hPa 0 mm - - -
1787919917 24.44° C 84% 1016.7 hPa 0 mm - - -
1787919317 23.89° C 84% 1016.5 hPa 0 mm - - -
1787918717 24.44° C 84% 1016.3 hPa 0 mm - - -
1787918117 24.44° C 83% 1016.4 hPa 0 mm - - -
1787917517 24.44° C 83% 1016.3 hPa 0 mm - - -
1787916922 24.44° C 83% 1016.4 hPa 0 mm - - -
1787916317 24.44° C 83% 1016.3 hPa 0 mm - - -
1787915717 24.44° C 83% 1016.2 hPa 0 mm - - -
1787915117 25° C 81% 1016.1 hPa 0 mm - - -
1787914518 25° C 81% 1016 hPa 0 mm - - -
1787913918 25.56° C 80% 1015.9 hPa 0 mm - - -
1787913317 25.56° C 79% 1015.8 hPa 0 mm - - -
1787912726 26.11° C 78% 1015.8 hPa 0 mm - - -
1787912117 26.11° C 77% 1015.8 hPa 0 mm - - -

* Rain latest hour (hover to see other rain measurements)
** Current wind speed in m/s (hover to see current wind gust speed)